Location: Palomar Mountain Lodge
(33.3110°N, 116.8495°W)
Time: 13:38:23
(UTC-07:00)

Daily predictions for brighter satellites

Satellite Brightness Start Highest point End
(mag) Time Altitude Azimuth Time Altitude Azimuth Time Altitude Azimuth
Cosmos 1745 Rocket 4.2 20:00:43 10° N 20:07:05 84° W 20:13:21 10° S
Cosmos 2315 Rocket 4.2 20:03:12 10° SSE 20:09:14 53° E 20:15:19 10° NNE
Helios 1A 4.4 20:07:29 10° ESE 20:10:47 23° ENE 20:14:05 10° NNE
Meteor 1-29 4.3 20:13:54 10° NE 20:16:27 20° E 20:18:59 10° SE
ATLAS 3B R/B 4.4 20:12:56 10° NW 20:18:26 29° WSW 20:23:48 10° SSW
Cosmos 724 4.4 20:13:11 10° NNW 20:19:09 68° ENE 20:24:56 10° SE
Resurs 1-3 3.6 20:19:31 10° SSE 20:23:53 82° ENE 20:28:16 10° N
USA 40 PKM 4.1 20:20:19 10° SSW 20:23:57 65° SE 20:27:35 10° NE
Cosmos 405 Rocket 4.1 20:21:57 10° SE 20:24:42 20° E 20:27:28 10° NE
RESURS DK-1 3.0 20:20:42 10° SSW 20:24:45 62° WNW 20:28:51 10° NNE
Okean 1 3.2 20:23:42 10° S 20:27:37 71° E 20:31:34 10° NNE
Cosmos 1818 3.5 20:22:28 10° SSW 20:27:52 82° ESE 20:33:20 10° NNE
Cosmos 1544 Rocket 3.9 20:24:39 10° N 20:28:49 46° E 20:32:57 10° SSE
Cosmos 2369 Rocket 2.5 20:23:12 10° NNW 20:28:50 72° WSW 20:34:28 10° S
NOSS 3-2 (C) 4.1 20:21:35 10° NNW 20:29:20 85° ENE 20:37:35 10° SSE
Resurs 01 Rocket 1.9 20:25:59 10° S 20:30:24 72° WSW 20:34:50 10° NNW
Cosmos 1975 3.1 20:31:29 10° N 20:35:25 48° E 20:39:21 10° SSE
Cosmos 773 Rocket 3.9 20:32:53 10° SSW 20:38:02 82° ESE 20:43:10 10° NNE
NOSS 2-2 (D) 3.2 20:36:16 10° SSW 20:40:12 78° ESE 20:44:27 10° NNE
Cosmos 1500 3.1 20:36:57 10° N 20:40:41 67° E 20:44:23 10° SSE
USA 81 4.2 20:36:48 10° SSE 20:41:55 56° E 20:47:05 10° NNE
Cosmos 1943 Rocket 2.1 20:38:01 10° NNW 20:43:38 79° ENE 20:48:54 11° SSE
Cosmos 1939 Rocket 3.1 20:43:58 14° SE 20:47:00 47° ENE 20:50:43 10° N
Cosmos 292 Rocket 4.4 20:42:43 10° SSW 20:47:28 60° WNW 20:52:15 10° N
SL-27 R/B 3.8 20:48:02 19° SE 20:49:15 22° E 20:52:09 10° NE
Helios 1B rocket 2.4 20:45:28 10° NNE 20:49:35 87° E 20:53:43 10° SSW
CENTAUR R/B 3.7 20:42:32 10° NNW 20:50:10 46° NE 20:56:31 17° ESE
Spot 2 Rocket 4.3 20:47:25 10° S 20:52:17 49° W 20:57:10 10° NNW
Abrixas 4.5 20:50:55 10° W 20:52:52 18° SW 20:54:29 12° S
Cosmos 1455 Rocket 2.9 20:49:49 10° N 20:54:11 81° E 20:58:13 12° S
Cosmos 1346 3.4 20:54:40 28° SE 20:55:30 36° E 20:58:04 10° NNE
COSMOS 2406 3.2 20:49:51 10° S 20:55:31 66° ESE 21:01:10 10° NNE
NOSS 2-2 (C) 3.9 20:55:04 10° SW 20:58:59 62° WNW 21:03:15 10° NNE
Cosmos 1680 Rocket 3.5 20:55:54 10° S 21:01:02 60° ESE 21:06:10 10° NNE
COSMOS 2455 2.8 20:55:02 10° NNW 21:01:04 85° ENE 21:05:37 18° SSE
SPOT 5 4.4 21:02:18 15° E 21:03:24 16° ENE 21:06:02 10° NNE
Cosmos 1743 2.9 21:02:09 10° N 21:05:57 53° E 21:07:47 27° SSE
ASTRO E2 2.6 21:07:30 10° W 21:11:28 66° S 21:13:08 32° ESE
Spot 1 4.4 21:09:33 14° S 21:13:32 68° WSW 21:17:56 10° NNW
Envisat 3.4 21:09:23 11° S 21:14:16 64° W 21:19:19 10° NNW
Tiangong 2 1.8 21:11:37 10° WSW 21:14:44 55° NNW 21:17:50 10° NE
ASTEX 1 3.5 21:16:01 26° SSE 21:18:35 57° E 21:23:23 10° N
CRYOSAT 2 4.4 21:22:09 30° SSE 21:24:21 59° E 21:29:07 10° N
Okean 1-7 Rocket 3.7 21:23:39 34° SSE 21:25:19 55° E 21:29:42 10° NNE
Okean 2 4.1 21:26:10 34° E 21:26:10 34° E 21:29:51 10° NNE
ISS -3.5 21:24:08 10° SW 21:27:24 65° NW 21:30:40 10° NE
Cosmos 1238 Rocket 4.1 21:25:08 16° S 21:30:38 74° E 21:37:19 10° N
Aureole 3 Rocket 4.2 21:26:48 10° SSW 21:34:10 68° W 21:39:22 10° N
Cosmos 2327 Rocket 4.4 21:27:58 10° N 21:34:11 85° E 21:37:56 26° S
Cosmos 1666 2.5 21:32:29 10° N 21:36:13 88° E 21:36:53 58° S
Aureole 1 Rocket 3.0 21:33:00 11° SSW 21:36:24 55° WNW 21:39:27 10° N
Meteor 2-9 Rocket 4.1 21:34:07 10° N 21:39:35 69° E 21:41:40 39° SSE
Meteor 2-4 Rocket 3.9 21:37:07 13° SSW 21:42:11 74° W 21:47:56 10° N
OAO 2 Rocket 3.4 21:41:44 10° W 21:46:41 73° N 21:48:58 32° ENE
DNEPR-1 R/B 3.7 21:44:06 10° NNW 21:48:21 59° ENE 21:48:59 53° E
Cosmos 1833 Rocket 4.2 21:53:01 19° ENE 21:53:01 19° ENE 21:55:25 10° NE
YAOGAN 6 3.9 21:50:59 28° SW 21:51:53 32° W 21:55:04 10° NNW
YAOGAN 11 3.8 21:56:08 74° SE 21:56:25 79° ENE 22:00:43 10° N
Cosmos 1606 Rocket 4.1 21:52:17 10° N 21:55:59 43° ENE 21:55:59 43° ENE
Cosmos 2181 Rocket 4.1 21:57:56 46° SE 21:59:25 56° E 22:05:34 10° NNE
SL-24 DEB 4.3 22:00:08 56° ENE 22:00:08 56° ENE 22:04:35 10° N
H-2A R/B 3.4 21:20:05 10° W 22:00:30 50° SSW 22:02:50 38° SSE
ERS-1 Rocket 3.6 22:01:29 33° SSW 22:03:21 49° W 22:08:14 10° NNW
CZ-3A R/B 2.1 21:59:35 10° SW 22:04:06 37° WNW 22:04:06 37° WNW
Cosmos 1726 Rocket 4.1 22:03:09 10° N 22:06:36 44° NE 22:06:36 44° NE
MetOp-A 4.4 22:07:51 44° SSW 22:09:25 63° WSW 22:14:44 10° NNW
Cosmos 1025 Rocket 4.1 22:12:14 31° WSW 22:13:33 40° W 22:17:35 10° N
H-2A R/B 1.9 22:14:07 63° ENE 22:14:07 63° ENE 22:19:00 10° N
Cosmos 2058 Rocket 4.0 22:09:57 10° N 22:13:09 36° NE 22:13:09 36° NE
USA 267 3.6 22:16:20 10° NE 22:21:19 44° E 22:21:19 44° E
Cosmos 1980 Rocket 4.5 22:21:54 10° NE 22:23:20 11° NE 22:24:11 11° ENE
Cosmos 1295 Rocket 4.3 22:17:55 10° N 22:24:04 70° E 22:24:42 65° ESE
Meteor 1-15 Rocket 4.4 22:20:03 10° NNW 22:25:33 66° W 22:26:28 56° SW
DMSP B5D2-2 4.0 22:23:25 10° NNE 22:28:29 77° ENE 22:28:29 77° ENE
SL-08 RB Rocket 4.1 22:30:58 56° WNW 22:30:58 56° WNW 22:35:02 10° NNW
Cosmos 1624 Rocket 3.9 22:26:30 10° NNW 22:31:37 84° N 22:31:37 84° N
Cosmos 962 Rocket 4.4 22:27:32 10° N 22:33:47 77° W 22:34:43 64° SSW
ARGOS 3.8 22:36:34 42° WSW 22:37:21 45° W 22:42:32 10° NNW
H-2A R/B 3.2 22:39:04 39° NNE 22:39:04 39° NNE 22:42:12 10° N
Landsat 7 4.2 22:39:26 62° N 22:39:26 62° N 22:43:24 10° NNW
CENTAUR R/B 4.0 22:33:27 10° NW 22:40:53 40° WSW 22:43:43 31° SSW
SPOT 5 3.9 22:41:33 33° W 22:41:33 33° W 22:45:07 10° NNW
Cosmos 2056 Rocket 3.9 22:45:25 10° NNW 22:49:51 58° WNW 22:49:51 58° WNW
Cosmos 2082 Rocket 2.3 22:51:36 71° N 22:51:36 71° N 22:56:39 10° NNE
SL-8 Rocket 3.8 22:46:03 10° N 22:52:19 89° E 22:52:21 89° ESE
Cosmos 2278 3.9 22:47:29 10° NNW 22:52:35 67° NNE 22:52:35 67° NNE
Terra 2.6 22:54:57 50° N 22:54:57 50° N 22:58:27 10° N
Cosmos 2366 rocket 4.0 22:50:18 10° N 22:55:55 66° NE 22:55:55 66° NE
Meteor 2-21 4.5 22:53:54 10° N 22:59:19 68° NE 22:59:19 68° NE
CZ-4B R/B 4.4 22:55:39 10° NNE 22:59:03 43° NNE 22:59:03 43° NNE
Timation 2 Rocket 4.2 23:12:40 62° NE 23:12:40 62° NE 23:17:46 10° NNE
Cosmos 2369 4.1 23:06:06 10° NNW 23:10:51 61° NW 23:10:51 61° NW
Cosmos 1697 Rocket 3.4 23:15:39 10° NNW 23:19:52 47° NNE 23:19:52 47° NNE
Cosmos 1452 Rocket 4.4 23:17:34 10° NNW 23:21:14 46° NNW 23:21:14 46° NNW
Cosmos 1833 Rocket 3.8 23:34:38 38° WNW 23:34:41 38° WNW 23:39:54 10° N
